Location: Academy at Carrie F Thomas
(32.8490°N, 97.2053°W)
Time: 20:25:32
(UTC+00:00)

Cosmos 1515 Rocket - Pass Details

Date: 28 June 2022
Orbit: 604 x 630 km, 82.5° (Epoch: 17 August)

Event Time Altitude Azimuth Distance (km) Brightness Sun altitude
Rises 10:24:48 0° 346° (NNW) 2,899 7.3 -11.1°
Reaches altitude 10° 10:27:06 10° 340° (NNW) 1,985 6.4 -10.7°
Maximum altitude 10:31:18 46° 268° (W) 822 3.8 -10.0°
Drops below altitude 10° 10:35:28 10° 194° (SSW) 1,957 5.7 -9.3°
Enters shadow 10:37:10 - 190° (S) 2,633 6.4 -9.0°
